Crestview, FL

4:23 PM CDT on July 22, 2017 (GMT -0500)
Sikes

Weather History for KCEW - January, 2014

Change the Weather History Date:

Tuesday, January 28, 2014

  Actual Average Record
Temperature  
Mean Temperature 36 °F -  
Max Temperature 46 °F 62 °F 78 °F (1950)
Min Temperature 25 °F 36 °F 23 °F (2003)
Degree Days  
Heating Degree Days 29    
Moisture  
Dew Point 24 °F    
Average Humidity 74    
Maximum Humidity 92    
Minimum Humidity 36    
Precipitation  
Precipitation 0.14 in - - ()
Sea Level Pressure  
Sea Level Pressure 30.17 in    
Wind  
Wind Speed 9 mph (North)    
Max Wind Speed 14 mph    
Max Gust Speed 23 mph    
Visibility 7 miles    
Events Rain , Snow    
Averages and records for this station are not official NWS values.
T = Trace of Precipitation, MM = Missing Value Source: NWS Daily Summary

Daily Weather History Graph

Daily Weather History Graph

Search for Another Location

Airport or City:

Trip Planner

Search our weather history database for the weather conditions in past years. The results will help you decide how hot, cold, wet, or windy it might be!

Date:

Astronomy

Jan. 28, 2014 Rise Set
Actual Time 6:39 AM CST 5:18 PM CST
Civil Twilight 6:14 AM CST 5:44 PM CST
Nautical Twilight 5:45 AM CST 6:13 PM CST
Astronomical Twilight 5:16 AM CST 6:41 PM CST
Moon 4:18 AM CST (1/28) 3:10 PM CST (1/28)
Length of Visible Light 11h 29m
Length of Day
10h 38m
Waning Crescent, 7% of the Moon is Illuminated
Jan 28
Waning Crescent
Jan 30
New
Feb 6
First Quarter
Feb 14
Full
Feb 22
Last Quarter

Hourly Weather History & Observations

Time (CST) Temp. Windchill Dew Point Humidity Pressure Visibility Wind Dir Wind Speed Gust Speed Precip Events Conditions
12:53 AM 46.0 °F 43.1 °F 28.0 °F 50% 30.07 in 10.0 mi North 5.8 mph - N/A   Mostly Cloudy
1:53 AM 44.1 °F 39.0 °F 21.0 °F 40% 30.08 in 10.0 mi NNW 9.2 mph 17.3 mph N/A   Mostly Cloudy
2:53 AM 41.0 °F 35.2 °F 19.0 °F 41% 30.06 in 10.0 mi NNE 9.2 mph - N/A   Clear
3:53 AM 39.9 °F 32.9 °F 17.1 °F 40% 30.09 in 10.0 mi NNE 11.5 mph 18.4 mph N/A   Mostly Cloudy
4:48 AM 39.2 °F 32.5 °F 17.6 °F 42% 30.09 in 10.0 mi North 10.4 mph 17.3 mph N/A   Overcast
4:53 AM 39.0 °F 32.8 °F 17.1 °F 41% 30.09 in 10.0 mi North 9.2 mph 17.3 mph N/A   Overcast
5:09 AM 39.0 °F 35.7 °F 17.1 °F 41% 30.09 in 10.0 mi NNE 4.6 mph - N/A   Overcast
5:43 AM 37.9 °F 30.5 °F 14.0 °F 38% 30.11 in 10.0 mi NNE 11.5 mph 19.6 mph N/A   Overcast
5:53 AM 37.9 °F 30.9 °F 14.0 °F 38% 30.12 in 10.0 mi NNE 10.4 mph 20.7 mph N/A   Overcast
6:53 AM 37.0 °F 28.9 °F 12.9 °F 37% 30.13 in 10.0 mi NNE 12.7 mph 20.7 mph N/A   Overcast
7:53 AM 37.0 °F 31.6 °F 12.9 °F 37% 30.16 in 10.0 mi North 6.9 mph - N/A   Overcast
8:53 AM 36.0 °F 28.0 °F 10.9 °F 36% 30.19 in 10.0 mi North 11.5 mph 19.6 mph N/A   Overcast
9:53 AM 36.0 °F 28.0 °F 12.0 °F 37% 30.20 in 10.0 mi North 11.5 mph 17.3 mph N/A   Overcast
10:53 AM 36.0 °F 28.5 °F 12.9 °F 39% 30.18 in 10.0 mi North 10.4 mph 17.3 mph 0.00 in   Overcast
11:53 AM 34.0 °F 27.2 °F 18.0 °F 52% 30.17 in 6.0 mi North 8.1 mph 18.4 mph 0.00 in Rain Rain
12:53 PM 32.0 °F 23.0 °F 24.1 °F 73% 30.15 in 9.0 mi North 11.5 mph 20.7 mph 0.00 in   Overcast
1:42 PM 30.9 °F 24.3 °F 27.0 °F 85% 30.13 in 5.0 mi North 6.9 mph - N/A   Overcast
1:53 PM 30.9 °F 22.8 °F 27.0 °F 85% 30.15 in 4.0 mi North 9.2 mph - N/A   Overcast
2:20 PM 30.9 °F 22.8 °F 28.0 °F 89% 30.13 in 2.5 mi North 9.2 mph 19.6 mph N/A   Overcast
2:27 PM 32.0 °F 24.2 °F 28.0 °F 85% 30.13 in 3.0 mi North 9.2 mph - N/A   Overcast
2:42 PM 32.0 °F 24.8 °F 28.9 °F 88% 30.12 in 2.5 mi NNE 8.1 mph - N/A   Overcast
2:53 PM 32.0 °F 26.4 °F 28.9 °F 88% 30.12 in 2.5 mi North 5.8 mph - N/A   Overcast
3:02 PM 30.9 °F 22.2 °F 28.0 °F 89% 30.13 in 4.0 mi North 10.4 mph - 0.00 in   Overcast
3:53 PM 32.0 °F 24.8 °F 30.0 °F 92% 30.13 in 3.0 mi North 8.1 mph - 0.02 in   Overcast
4:34 PM 33.1 °F 27.7 °F 30.0 °F 89% 30.14 in 2.5 mi North 5.8 mph - 0.05 in   Overcast
4:46 PM 33.1 °F 24.9 °F 30.0 °F 89% 30.16 in 4.0 mi North 10.4 mph 20.7 mph 0.06 in Rain Light Rain
4:53 PM 32.0 °F 24.2 °F 28.9 °F 88% 30.16 in 4.0 mi North 9.2 mph 20.7 mph 0.07 in Rain Rain
5:02 PM 33.1 °F 26.1 °F 30.0 °F 89% 30.16 in 3.0 mi North 8.1 mph - 0.01 in Rain Rain
5:20 PM 33.1 °F 26.1 °F 30.0 °F 89% 30.17 in 5.0 mi North 8.1 mph - 0.02 in Rain Rain
5:44 PM 33.1 °F 24.4 °F 30.0 °F 89% 30.17 in 7.0 mi North 11.5 mph 19.6 mph 0.04 in Rain Light Rain
5:53 PM 32.0 °F 24.8 °F 28.9 °F 88% 30.17 in 9.0 mi North 8.1 mph 19.6 mph 0.04 in Rain Light Rain
6:07 PM 32.0 °F 23.6 °F 30.0 °F 92% 30.18 in 6.0 mi North 10.4 mph 20.7 mph 0.01 in   Overcast
6:24 PM 32.0 °F 23.6 °F 28.9 °F 88% 30.18 in 8.0 mi North 10.4 mph 18.4 mph 0.01 in   Overcast
6:38 PM 32.0 °F 24.2 °F 30.0 °F 92% 30.18 in 10.0 mi North 9.2 mph - 0.01 in   Overcast
6:48 PM 32.0 °F 24.8 °F 28.4 °F 87% 30.19 in 10.0 mi North 8.1 mph 19.6 mph 0.01 in   Overcast
6:53 PM 32.0 °F 24.2 °F 28.9 °F 88% 30.19 in 10.0 mi North 9.2 mph - 0.01 in   Overcast
7:22 PM 32.0 °F 23.0 °F 28.9 °F 88% 30.21 in 4.0 mi NNW 11.5 mph 18.4 mph 0.00 in Snow Light Snow
7:37 PM 30.9 °F 21.2 °F 28.0 °F 89% 30.22 in 4.0 mi North 12.7 mph 20.7 mph 0.00 in   Overcast
7:53 PM 30.9 °F 24.3 °F 28.0 °F 89% 30.23 in 5.0 mi North 6.9 mph 19.6 mph 0.00 in   Overcast
8:21 PM 28.9 °F 19.8 °F 26.1 °F 89% 30.22 in 10.0 mi North 10.4 mph 18.4 mph 0.00 in   Overcast
8:53 PM 28.9 °F 19.2 °F 26.1 °F 89% 30.24 in 3.0 mi North 11.5 mph 18.4 mph N/A   Overcast
9:11 PM 28.9 °F 19.8 °F 26.1 °F 89% 30.26 in 2.5 mi North 10.4 mph - N/A   Overcast
9:15 PM 28.9 °F 19.2 °F 26.1 °F 89% 30.25 in 1.8 mi NNW 11.5 mph 18.4 mph N/A   Overcast
9:34 PM 27.0 °F 18.0 °F 24.1 °F 89% 30.25 in 2.0 mi North 9.2 mph 19.6 mph N/A Snow Light Snow
9:39 PM 27.0 °F 15.6 °F 24.1 °F 89% 30.25 in 3.0 mi North 13.8 mph 23.0 mph N/A Snow Light Snow
9:53 PM 26.1 °F 16.2 °F 23.0 °F 88% 30.27 in 6.0 mi North 10.4 mph 20.7 mph N/A   Overcast
10:29 PM 26.1 °F 17.6 °F 23.0 °F 88% 30.27 in 6.0 mi North 8.1 mph 21.9 mph N/A   Overcast
10:40 PM 26.1 °F 15.0 °F 23.0 °F 88% 30.26 in 5.0 mi North 12.7 mph 23.0 mph N/A   Overcast
10:53 PM 26.1 °F 16.8 °F 21.9 °F 84% 30.26 in 9.0 mi North 9.2 mph 18.4 mph N/A   Overcast
11:53 PM 25.0 °F 16.3 °F 21.0 °F 85% 30.26 in 10.0 mi North 8.1 mph 18.4 mph N/A   Overcast